Tracking 25710 objects as of 5-Jul-2022
HD Live streaming from Space Station
objects crossing your sky now

FENGYUN 1C DEB

Track FENGYUN 1C DEB now!
10-day predictions


NORAD ID: 29855
Int'l Code: 1999-025EZ
Perigee: 781.0 km
Apogee: 1,088.6 km
Inclination: 98.2 °
Period: 103.6 minutes
Semi major axis: 7305 km
RCS: 0.043 m2 (small)
Launch date: May 10, 1999
Source: People's Republic of China (PRC)
Launch site: Taiyaun Space Center, China (TSC)

Note: This is SATELLITE DEBRIS
aabbcc
Your satellite tracking list
Your tracking list is empty




NASA's NSSDC Master Catalog

Two Line Element Set (TLE):
1 29855U 99025EZ  22185.76102168  .00000758  00000-0  53721-3 0  9994
2 29855  98.1820 253.9281 0210554 337.8992 144.5603 13.90273513781864
Source of the keplerian elements: AFSPC